﻿Дата;UBN;AdRiver;C8 Network;Google
2020-05-06;1;0;0;0
2020-04-29;1;0;0;0
2020-03-24;1;0;0;0
2019-12-28;1;0;0;0
2019-11-17;1;0;0;0
2019-11-09;1;0;0;0
2019-09-14;1;0;0;0
2019-09-10;1;0;0;0
2019-08-18;2;0;0;0
2019-05-18;1;0;0;0
2019-05-10;1;0;0;0
2019-04-27;1;0;0;0
2019-02-18;1;0;0;0
2019-02-05;1;0;0;0
2019-01-31;1;0;0;0
2019-01-23;1;0;0;0
2019-01-05;1;0;0;0
2018-12-26;1;0;0;0
2018-12-09;1;0;0;0
2018-11-16;1;0;0;0
2018-10-05;1;0;0;0
2018-08-21;1;0;0;0
2018-07-09;1;0;0;0
2018-06-03;1;0;0;0
2018-05-30;1;0;0;0
2018-05-27;1;0;0;0
2018-05-26;1;0;0;0
2018-05-03;1;0;0;0
2018-03-10;1;0;0;0
2018-02-28;1;0;0;0
2018-02-18;1;0;0;0
2018-01-23;1;0;0;0
2018-01-11;1;0;0;0
2017-12-21;1;0;0;0
2017-12-13;1;0;0;0
2017-11-12;1;0;0;0
2017-10-28;1;0;0;0
2017-09-28;1;0;0;0
2017-09-23;1;0;0;0
2017-07-18;1;0;0;0
2017-07-13;1;0;0;0
2017-07-11;1;0;0;0
2017-07-06;1;0;0;0
2017-07-03;1;0;0;0
2017-05-09;1;0;0;0
2017-04-30;1;0;0;0
2017-04-09;1;0;0;0
2017-04-07;1;0;0;0
2017-04-06;1;0;0;0
2017-02-25;1;0;0;0
2017-02-23;1;0;0;0
2017-01-31;1;0;0;0
2017-01-21;1;0;0;0
2016-12-21;1;0;0;0
2016-12-16;1;0;0;0
2016-12-12;1;0;0;0
2016-12-11;1;0;0;0
2016-12-09;1;0;0;0
2016-12-08;1;0;0;0
2016-11-22;1;0;0;0
2016-11-21;1;0;0;0
2016-10-18;1;0;0;0
2016-10-17;1;0;0;0
2016-10-14;1;0;0;0
2016-10-09;1;0;0;0
2016-10-04;1;0;0;0
2016-10-02;1;0;0;0
2016-09-21;1;0;0;0
2016-08-31;1;0;0;0
2016-08-27;1;0;0;0
2016-08-25;1;0;0;0
2016-08-18;1;0;0;0
2016-08-17;1;0;0;0
2016-08-04;1;0;0;0
2016-07-25;1;0;0;0
2016-07-21;1;0;0;0
2016-07-14;1;0;0;0
2016-07-07;1;0;0;0
2016-05-26;1;0;0;0
2016-05-25;1;0;0;0
2016-05-22;1;0;0;0
2016-04-29;1;0;0;0
2016-04-22;1;0;0;0
2016-04-13;1;0;0;0
2016-04-09;1;0;0;0
2016-04-03;1;0;0;0
2016-04-01;1;0;0;0
2016-03-20;1;0;0;0
2016-03-15;1;0;0;0
2016-03-12;1;0;0;0
2016-03-09;1;0;0;0
2016-03-06;1;0;0;0
2016-02-26;1;0;0;0
2016-02-22;1;0;0;0
2016-02-20;1;0;0;0
2016-02-18;1;0;0;0
2016-02-17;1;0;0;0
2016-02-13;1;0;0;0
2016-02-06;1;0;0;0
2016-02-04;1;0;0;0
2016-02-03;1;0;0;0
2016-02-02;2;0;0;0
2016-01-30;2;0;0;0
2016-01-28;2;0;0;0
2016-01-14;1;0;0;0
2016-01-11;1;0;0;0
2016-01-03;1;0;0;0
2015-12-29;1;0;0;0
2015-12-25;1;0;0;0
2015-12-19;1;0;0;0
2015-12-14;1;0;0;0
2015-12-06;1;0;0;0
2015-12-04;1;0;0;0
2015-11-25;1;0;0;0
2015-11-23;1;0;0;0
2015-11-22;2;0;0;0
2015-11-21;1;0;0;0
2015-11-15;1;0;0;0
2015-11-09;1;0;0;0
2015-10-30;1;0;0;0
2015-10-22;1;0;0;0
2015-10-19;1;0;0;0
2015-10-17;1;0;0;0
2015-10-11;3;0;0;0
2015-10-03;1;0;0;0
2015-10-01;1;0;0;0
2015-09-28;2;0;0;0
2015-09-26;1;0;0;0
2015-09-24;1;0;0;0
2015-09-02;1;0;0;0
2015-08-30;1;0;0;0
2015-08-29;1;0;0;0
2015-08-21;1;0;0;0
2015-08-15;1;0;0;0
2015-08-14;1;0;0;0
2015-08-09;1;0;0;0
2015-08-08;1;0;0;0
2015-08-05;1;0;0;0
2015-07-12;1;0;0;0
2015-07-11;2;0;0;0
2015-07-07;2;0;0;0
2015-07-05;1;0;0;0
2015-07-01;1;0;0;0
2015-06-30;1;0;0;0
2015-06-26;1;0;0;0
2015-06-16;1;0;0;0
2015-06-12;1;0;0;0
2015-06-07;1;0;0;0
2015-06-05;1;0;0;0
2015-06-04;1;0;0;0
2015-05-24;1;0;0;0
2015-05-19;1;0;0;0
2015-05-17;1;0;0;0
2015-05-14;1;0;0;0
2015-05-07;1;0;0;0
2015-05-03;1;0;0;0
2015-05-02;1;0;0;0
2015-04-29;1;0;0;0
2015-04-28;1;0;0;0
2015-04-27;1;0;0;0
2015-04-21;2;0;0;0
2015-04-13;1;0;0;0
2015-04-08;1;0;0;0
2015-04-01;1;0;0;0
2015-03-26;1;0;0;0
2015-03-25;2;0;0;0
2015-03-22;1;0;0;0
2015-03-21;2;0;0;0
2015-03-20;1;0;0;0
2015-03-18;1;0;0;0
2015-03-17;2;0;0;0
2015-03-16;1;0;0;0
2015-03-02;1;0;0;0
2015-02-27;3;0;0;0
2015-02-26;1;0;0;0
2015-02-24;1;0;0;0
2015-02-23;1;0;0;0
2015-02-22;2;0;0;0
2015-02-20;1;0;0;0
2015-02-17;1;0;0;0
2015-02-15;2;0;0;0
2015-02-12;2;0;0;0
2015-02-11;1;0;0;0
2015-02-05;1;0;0;0
2015-02-04;1;0;0;0
2015-01-29;1;0;0;0
2015-01-28;2;0;0;0
2015-01-24;1;0;0;0
2015-01-23;1;0;0;0
2015-01-22;1;0;0;0
2015-01-19;1;0;0;0
2015-01-16;2;0;0;0
2015-01-14;1;0;0;0
2015-01-12;3;0;0;0
2015-01-08;1;0;0;0
2015-01-07;1;0;0;0
2015-01-06;1;0;0;0
2015-01-04;1;0;0;0
2015-01-02;1;0;0;0
2014-12-29;1;0;0;0
2014-12-26;1;0;0;0
2014-12-25;1;0;0;0
2014-12-24;2;0;0;0
2014-12-23;1;0;0;0
2014-12-21;1;0;0;0
2014-12-19;1;0;0;0
2014-12-18;1;0;0;0
2014-12-16;1;0;0;0
2014-12-14;1;0;0;0
2014-12-12;1;0;0;0
2014-12-10;2;0;0;0
2014-12-09;1;0;0;0
2014-12-08;1;0;0;0
2014-12-03;1;0;0;0
2014-12-02;1;0;0;0
2014-12-01;2;0;0;0
2014-11-29;1;0;0;0
2014-11-28;1;0;0;0
2014-11-27;1;0;0;0
2014-11-25;1;0;0;0
2014-11-23;1;0;0;0
2014-11-16;1;0;0;0
2014-11-14;3;0;0;0
2014-11-12;1;0;0;0
2014-11-11;1;0;0;0
2014-11-10;1;0;0;0
2014-11-08;1;0;0;0
2014-11-07;1;0;0;0
2014-11-05;1;0;0;0
2014-11-03;1;0;0;0
2014-11-02;1;0;0;0
2014-10-31;1;0;0;0
2014-10-28;1;0;0;0
2014-10-25;1;0;0;0
2014-10-24;1;0;0;0
2014-10-23;1;0;0;0
2014-10-18;1;0;0;0
2014-10-17;1;0;0;0
2014-10-16;2;0;0;0
2014-10-11;2;0;0;0
2014-10-10;2;0;0;0
2014-10-09;2;0;0;0
2014-10-08;3;0;0;0
2014-10-05;1;0;0;0
2014-10-04;2;0;0;0
2014-10-02;1;0;0;0
2014-09-26;3;0;0;0
2014-09-24;1;0;0;0
2014-09-23;1;0;0;0
2014-09-22;2;0;0;0
2014-09-20;1;0;0;0
2014-09-19;1;0;0;0
2014-09-17;2;0;0;0
2014-09-16;1;0;0;0
2014-09-15;1;0;0;0
2014-09-14;1;0;0;0
2014-09-11;1;0;0;0
2014-09-10;1;0;0;0
2014-09-09;1;0;0;0
2014-09-08;1;0;0;0
2014-09-07;1;0;0;0
2014-09-06;1;0;0;0
2014-09-01;1;0;0;0
2014-08-28;1;0;0;0
2014-08-18;1;0;0;0
2014-08-15;1;0;0;0
2014-08-11;1;0;0;0
2014-08-08;1;0;0;0
2014-08-07;1;0;0;0
2014-08-05;1;0;0;0
2014-08-03;1;0;0;0
2014-08-01;1;0;0;0
2014-07-29;3;0;0;0
2014-07-20;1;0;0;0
2014-07-06;1;0;0;0
2014-07-04;2;0;0;0
2014-07-03;1;0;0;0
2014-07-02;1;0;0;0
2014-06-29;1;0;0;0
2014-06-27;1;0;0;0
2014-06-26;1;0;0;0
2014-06-25;2;0;0;0
2014-06-23;1;0;0;0
2014-06-17;2;0;0;0
2014-06-15;1;0;0;0
2014-06-14;1;0;0;0
2014-06-13;1;0;0;0
2014-06-10;1;0;0;0
2014-06-09;1;0;0;0
2014-06-08;2;0;0;0
2014-06-07;1;0;0;0
2014-06-06;1;0;0;0
2014-06-05;2;0;0;0
2014-06-03;1;0;0;0
2014-06-02;2;0;0;0
2014-06-01;2;0;0;0
2014-05-29;3;0;0;0
2014-05-26;1;0;0;0
2014-05-25;1;0;0;0
2014-05-23;1;0;0;0
2014-05-21;1;0;0;0
2014-05-20;1;0;0;0
2014-05-19;1;0;0;0
2014-05-18;1;0;0;0
2014-05-16;1;0;0;0
2014-05-15;1;0;0;0
2014-05-13;3;0;0;0
2014-05-12;3;0;0;0
2014-05-08;2;0;0;0
2014-05-07;1;0;0;0
2014-05-06;2;0;0;0
2014-05-04;2;0;0;0
2014-05-03;1;0;0;0
2014-05-01;1;0;0;0
2014-04-21;1;0;0;0
2014-04-18;1;0;0;0
2014-04-15;2;0;0;0
2014-04-13;2;0;0;0
2014-04-10;4;0;0;0
2014-04-07;3;0;0;0
2014-04-05;1;0;0;0
2014-04-04;2;0;0;0
2014-04-03;1;0;0;0
2014-04-02;1;0;0;0
2014-03-31;2;0;0;0
2014-03-29;1;0;0;0
2014-03-26;2;0;0;0
2014-03-25;1;0;0;0
2014-03-23;1;0;0;0
2014-03-22;1;0;0;0
2014-03-21;1;0;0;0
2014-03-20;3;0;0;0
2014-03-19;1;0;0;0
2014-03-17;1;0;0;0
2014-03-14;1;0;0;0
2014-03-13;1;0;0;0
2014-03-09;2;0;0;0
2014-03-07;1;0;0;0
2014-03-06;1;0;0;0
2014-03-05;1;0;0;0
2014-03-03;2;0;0;0
2014-02-28;2;0;0;0
2014-02-27;1;0;0;0
2014-02-26;1;0;0;0
2014-02-24;1;0;0;0
2014-02-22;1;0;0;0
2014-02-19;2;0;0;0
2014-02-18;1;0;0;0
2014-02-17;2;0;0;0
2014-02-16;2;0;0;0
2014-02-14;3;0;0;0
2014-02-13;1;0;0;0
2014-02-12;1;0;0;0
2014-02-11;3;0;0;0
2014-02-10;10;0;0;0
2014-02-09;6;0;0;0
2014-02-08;7;0;0;0
2014-02-07;6;0;0;0
2014-02-06;3;0;0;0
2014-02-05;8;0;0;0
2014-02-04;9;0;0;0
2014-02-03;5;0;0;0
2014-02-02;7;0;0;0
2014-02-01;4;0;0;0
2014-01-31;5;0;0;0
2014-01-30;8;0;0;0
2014-01-29;6;0;0;0
2014-01-28;6;0;0;0
2014-01-27;4;0;0;0
2014-01-26;6;0;0;0
2014-01-25;7;0;0;0
2014-01-24;4;0;0;0
2014-01-23;5;0;0;0
2014-01-22;2;0;0;0
2014-01-21;5;0;0;0
2014-01-20;3;0;0;0
2014-01-19;6;0;0;0
2014-01-18;1;0;0;0
2014-01-17;8;0;0;0
2014-01-16;4;0;0;0
2014-01-15;4;0;0;0
2014-01-14;6;0;0;0
2014-01-13;5;0;0;0
2014-01-12;6;0;0;0
2014-01-11;5;0;0;0
2014-01-10;4;0;0;0
2014-01-09;2;0;0;0
2014-01-08;8;0;0;0
2014-01-07;6;0;0;0
2014-01-06;2;0;0;0
2014-01-05;1;0;0;0
2014-01-04;9;0;0;0
2014-01-03;2;0;0;0
2014-01-02;2;0;0;0
2014-01-01;2;0;0;0
2013-12-31;1;0;0;0
2013-12-30;1;0;0;0
2013-12-29;3;0;0;0
2013-12-28;5;0;0;0
2013-12-27;5;0;0;0
2013-12-26;7;0;0;0
2013-12-25;2;0;0;0
2013-12-24;1;0;0;0
2013-12-23;7;0;0;0
2013-12-22;5;0;0;0
2013-12-21;8;0;0;0
2013-12-20;2;0;0;0
2013-12-19;6;0;0;0
2013-12-18;6;0;0;0
2013-12-17;3;0;0;0
2013-12-16;5;0;0;0
2013-12-15;5;0;0;0
2013-12-14;7;0;0;0
2013-12-13;1;0;0;0
2013-12-12;5;0;0;0
2013-12-11;4;0;0;0
2013-12-10;6;0;0;0
2013-12-09;94;0;0;0
2013-12-08;92;0;0;0
2013-12-07;92;0;0;0
2013-12-06;83;0;0;0
2013-12-05;104;0;0;0
2013-12-04;84;0;0;0
2013-12-03;92;0;0;0
2013-12-02;114;0;0;0
2013-12-01;101;0;0;0
2013-11-30;70;0;0;0
2013-11-29;94;0;0;0
2013-11-28;117;0;0;0
2013-11-27;99;0;0;0
2013-11-26;110;0;0;0
2013-11-25;109;0;0;0
2013-11-24;105;0;0;0
2013-11-23;68;0;0;0
2013-11-22;80;0;0;0
2013-11-21;119;0;0;0
2013-11-20;91;0;0;0
2013-11-19;93;0;0;0
2013-11-18;86;0;1;0
2013-11-17;74;0;0;0
2013-11-16;51;0;0;0
2013-11-15;76;0;0;0
2013-11-14;89;0;0;0
2013-11-13;74;0;0;0
2013-11-12;101;0;0;0
2013-11-11;92;0;0;0
2013-11-10;103;0;1;0
2013-11-09;74;0;0;0
2013-11-08;99;0;0;0
2013-11-07;99;0;0;0
2013-11-06;82;0;0;0
2013-11-05;102;0;0;0
2013-11-04;80;0;0;0
2013-11-03;83;0;0;0
2013-11-02;78;0;0;0
2013-11-01;72;0;0;0
2013-10-31;114;0;0;0
2013-10-30;98;0;0;0
2013-10-29;84;0;0;0
2013-10-28;34;0;0;0
2013-10-27;8;0;0;0
2013-10-26;65;0;0;0
2013-10-25;77;0;0;0
2013-10-24;104;0;0;0
2013-10-23;100;0;0;0
2013-10-22;93;0;0;0
2013-10-21;101;0;0;0
2013-10-20;83;0;0;0
2013-10-19;79;0;0;0
2013-10-18;97;0;0;0
2013-10-17;104;0;0;0
2013-10-16;95;0;0;0
2013-10-15;86;0;0;0
2013-10-14;97;0;0;0
2013-10-13;84;0;0;0
2013-10-12;57;0;0;0
2013-10-11;74;0;0;0
2013-10-10;94;0;0;0
2013-10-09;101;0;0;0
2013-10-08;95;0;0;0
2013-10-07;76;0;0;0
2013-10-06;72;0;0;0
2013-10-05;76;0;0;0
2013-10-04;78;0;0;0
2013-10-03;104;0;0;0
2013-10-02;107;0;0;0
2013-10-01;105;0;0;0
2013-09-30;106;0;0;0
2013-09-29;79;0;0;0
2013-09-28;84;0;0;0
2013-09-27;105;0;0;0
2013-09-26;117;0;0;0
2013-09-25;82;0;0;0
2013-09-24;62;0;0;0
2013-09-23;117;0;0;0
2013-09-22;85;0;0;0
2013-09-21;82;0;0;0
2013-09-20;99;0;0;0
2013-09-19;104;0;0;0
2013-09-18;100;0;0;0
2013-09-17;104;0;0;0
2013-09-16;106;0;0;0
2013-09-15;111;0;0;0
2013-09-14;67;0;0;0
2013-09-13;101;0;0;0
2013-09-12;95;0;0;0
2013-09-11;89;0;0;0
2013-09-10;87;0;0;0
2013-09-09;127;0;0;0
2013-09-08;102;0;0;0
2013-09-07;80;0;0;0
2013-09-06;121;0;0;0
2013-09-05;103;0;0;0
2013-09-04;92;0;0;0
2013-09-03;89;0;0;0
2013-09-02;91;0;0;0
2013-09-01;74;0;0;0
2013-08-31;68;0;0;0
2013-08-30;83;0;0;0
2013-08-29;92;0;0;0
2013-08-28;81;0;0;0
2013-08-27;110;0;0;0
2013-08-26;100;0;0;0
2013-08-25;68;0;0;0
2013-08-24;70;0;0;0
2013-08-23;74;0;0;0
2013-08-22;83;0;0;0
2013-08-21;88;0;0;0
2013-08-20;94;0;0;0
2013-08-19;103;0;0;0
2013-08-18;79;0;0;0
2013-08-17;74;0;0;0
2013-08-16;96;0;0;0
2013-08-15;115;0;0;0
2013-08-14;88;0;0;0
2013-08-13;98;0;0;0
2013-08-12;119;0;0;0
2013-08-11;93;0;1;0
2013-08-10;90;0;0;0
2013-08-09;106;0;0;0
2013-08-08;81;0;0;0
2013-08-07;88;0;0;0
2013-08-06;109;0;0;0
2013-08-05;107;0;0;0
2013-08-04;105;0;0;0
2013-08-03;97;0;0;0
2013-08-02;108;0;0;0
2013-08-01;109;0;0;0
2013-07-31;135;0;0;0
2013-07-30;111;0;0;0
2013-07-29;117;0;0;0
2013-07-28;110;0;0;0
2013-07-27;97;0;0;0
2013-07-26;109;0;0;0
2013-07-25;139;0;0;0
2013-07-24;114;0;0;0
2013-07-23;107;0;0;0
2013-07-22;117;0;0;0
2013-07-21;116;0;0;0
2013-07-20;104;0;0;0
2013-07-19;136;0;0;0
2013-07-18;112;0;0;0
2013-07-17;121;0;0;0
2013-07-16;120;0;0;0
2013-07-15;122;0;0;0
2013-07-14;100;0;0;0
2013-07-13;90;0;0;0
2013-07-12;106;0;0;0
2013-07-11;106;0;0;0
2013-07-10;100;0;0;0
2013-07-09;111;0;0;0
2013-07-08;132;0;0;0
2013-07-07;105;0;0;0
2013-07-06;97;0;0;0
2013-07-05;92;0;0;0
2013-07-04;92;0;0;0
2013-07-03;103;0;0;0
2013-07-02;122;0;0;0
2013-07-01;125;0;0;0
2013-06-30;115;0;0;0
2013-06-29;87;0;0;0
2013-06-28;98;0;0;0
2013-06-27;95;0;0;0
2013-06-26;102;0;0;0
2013-06-25;100;0;0;0
2013-06-24;106;0;0;0
2013-06-23;84;0;0;0
2013-06-22;67;0;0;0
2013-06-21;104;0;0;1
2013-06-20;109;0;0;0
2013-06-19;115;0;0;0
2013-06-18;105;0;0;0
2013-06-17;113;0;0;0
2013-06-16;95;0;0;0
2013-06-15;94;0;1;0
2013-06-14;104;0;0;0
2013-06-13;99;0;0;0
2013-06-12;111;0;0;0
2013-06-11;103;0;0;0
2013-06-10;103;0;0;0
2013-06-09;100;0;0;0
2013-06-08;84;0;0;0
2013-06-07;90;0;0;0
2013-06-06;124;0;0;0
2013-06-05;130;0;0;0
2013-06-04;110;0;0;0
2013-06-03;125;0;0;0
2013-06-02;105;0;0;0
2013-06-01;78;0;0;0
2013-05-31;85;0;0;0
2013-05-30;88;0;0;0
2013-05-29;122;0;0;0
2013-05-28;119;0;0;0
2013-05-27;144;0;0;0
2013-05-26;131;0;0;0
2013-05-25;126;0;0;0
2013-05-24;114;0;0;0
2013-05-23;99;0;0;0
2013-05-22;125;0;0;0
2013-05-21;110;0;0;0
2013-05-20;115;0;0;0
2013-05-19;107;0;0;0
2013-05-18;91;0;0;0
2013-05-17;115;0;0;0
2013-05-16;83;0;0;1
2013-05-15;81;0;0;0
2013-05-14;111;0;0;0
2013-05-13;126;0;0;0
2013-05-12;116;0;0;0
2013-05-11;95;0;0;0
2013-05-10;107;0;0;0
2013-05-09;80;0;0;0
2013-05-08;111;0;0;0
2013-05-07;106;0;0;0
2013-05-06;107;0;0;0
2013-05-05;90;0;0;0
2013-05-04;94;0;0;0
2013-05-03;93;0;0;0
2013-05-02;103;0;0;0
2013-05-01;87;0;0;0
2013-04-30;90;0;0;0
2013-04-29;115;0;0;0
2013-04-28;128;0;1;0
2013-04-27;101;0;0;0
2013-04-26;110;0;0;0
2013-04-25;105;0;0;0
2013-04-24;128;0;0;0
2013-04-23;137;0;0;0
2013-04-22;146;0;0;0
2013-04-21;136;0;0;0
2013-04-20;103;0;0;0
2013-04-19;116;0;0;0
2013-04-18;109;0;0;0
2013-04-17;143;0;0;0
2013-04-16;130;0;0;0
2013-04-15;138;0;0;0
2013-04-14;157;1;0;0
2013-04-13;130;1;0;0
2013-04-12;128;0;0;0
2013-04-11;162;0;0;0
2013-04-10;138;0;0;0
2013-04-09;148;2;0;0
2013-04-08;174;0;0;0
2013-04-07;160;0;0;0
2013-04-06;132;0;0;0
2013-04-05;159;0;0;0
2013-04-04;147;0;0;0
2013-04-03;164;1;0;0
2013-04-02;133;0;0;0
2013-04-01;152;0;0;0
2013-03-31;162;0;0;0
2013-03-30;130;0;0;0
2013-03-29;128;0;0;0
2013-03-28;148;0;0;0
2013-03-27;157;0;0;0
2013-03-26;159;0;1;0
2013-03-25;150;1;0;0
2013-03-24;192;1;0;0
2013-03-23;157;0;0;0
2013-03-22;144;0;0;0
2013-03-21;146;1;0;0
2013-03-20;147;1;0;0
2013-03-19;160;0;0;0
2013-03-18;166;0;0;0
2013-03-17;159;2;0;0
2013-03-16;159;1;0;0
2013-03-15;135;1;1;0
2013-03-14;136;0;0;0
2013-03-13;149;0;0;0
2013-03-12;160;0;1;0
2013-03-11;161;0;0;0
2013-03-10;176;1;0;0
2013-03-09;163;0;0;0
2013-03-08;134;0;0;0
2013-03-07;113;0;0;0
2013-03-06;159;0;0;0
2013-03-05;174;2;0;0
2013-03-04;216;0;0;0
2013-03-03;236;1;0;0
2013-03-02;186;1;0;0
2013-03-01;201;0;0;0
2013-02-28;198;0;0;0
2013-02-27;201;0;0;0
2013-02-26;225;0;0;0
2013-02-25;287;1;0;0
2013-02-24;260;0;0;0
2013-02-23;224;0;0;0
2013-02-22;213;0;0;0
2013-02-21;273;0;0;0
2013-02-20;243;0;0;0
2013-02-19;236;2;0;0
2013-02-18;230;1;0;0
2013-02-17;263;0;0;0
2013-02-16;218;0;0;0
2013-02-15;216;0;0;0
2013-02-14;206;0;0;0
2013-02-13;204;0;0;0
2013-02-12;232;0;0;0
2013-02-11;199;0;0;0
2013-02-10;187;1;0;0
2013-02-09;168;0;0;0
2013-02-08;160;0;0;0
2013-02-07;172;0;0;0
2013-02-06;146;0;0;0
2013-02-05;167;0;0;0
2013-02-04;197;0;0;0
2013-02-03;193;1;0;0
2013-02-02;183;1;0;0
2013-02-01;168;0;0;0
2013-01-31;180;0;0;0
2013-01-30;198;0;0;0
2013-01-29;193;0;0;0
2013-01-28;211;1;0;0
2013-01-27;211;1;0;0
2013-01-26;193;0;0;0
2013-01-25;192;2;0;0
2013-01-24;199;0;0;0
2013-01-23;131;0;0;0
2013-01-22;205;1;0;0
2013-01-21;145;1;0;0
2013-01-20;227;0;0;0
2013-01-19;133;0;0;0
2013-01-18;200;0;0;0
2013-01-17;147;1;0;0
2013-01-16;194;0;0;0
2013-01-15;205;0;0;0
2013-01-14;210;0;0;0
2013-01-13;182;0;0;0
2013-01-12;185;0;0;0
2013-01-11;221;1;0;0
2013-01-10;160;0;0;0
2013-01-09;232;1;0;0
2013-01-08;253;0;0;0
2013-01-07;259;1;0;0
2013-01-06;181;0;0;0
2013-01-05;172;0;0;0
2013-01-04;203;0;0;0
2013-01-03;232;0;0;0
2013-01-02;233;0;0;0
2013-01-01;163;0;0;0
2012-12-31;103;0;0;0
2012-12-30;144;0;0;0
2012-12-29;153;0;0;0
2012-12-28;200;2;0;0
2012-12-27;235;1;0;0
2012-12-26;225;0;0;0
2012-12-25;245;1;0;0
2012-12-24;234;1;0;0
2012-12-23;279;1;0;0
2012-12-22;246;0;0;0
2012-12-21;233;1;1;0
2012-12-20;219;0;0;0
2012-12-19;176;0;0;0
2012-12-18;269;0;0;0
2012-12-17;260;1;0;0
2012-12-16;238;0;0;0
2012-12-15;187;0;0;0
2012-12-14;223;0;0;0
2012-12-13;273;0;0;0
2012-12-12;243;0;0;0
2012-12-11;283;0;0;0
2012-12-10;296;0;0;0
2012-12-09;314;0;0;0
2012-12-08;213;0;0;0
2012-12-07;216;0;0;0
2012-12-06;268;1;0;0
2012-12-05;278;0;0;0
2012-12-04;314;0;0;0
2012-12-03;301;0;0;0
2012-12-02;189;0;0;0
2012-12-01;204;0;0;0
2012-11-30;223;0;0;0
2012-11-29;216;0;1;0
2012-11-28;234;0;0;0
2012-11-27;178;0;0;0
2012-11-26;336;1;0;0
2012-11-25;356;0;1;0
2012-11-24;250;0;0;0
2012-11-23;254;0;0;0
2012-11-22;236;0;0;0
2012-11-21;237;0;0;0
2012-11-20;200;0;0;0
2012-11-19;202;0;0;0
2012-11-18;296;0;0;0
2012-11-17;260;0;0;0
2012-11-16;243;0;0;0
2012-11-15;314;1;0;0
2012-11-14;304;0;0;0
2012-11-13;294;0;0;0
2012-11-12;374;0;0;0
2012-11-11;321;0;0;0
2012-11-10;289;0;0;0
2012-11-09;253;0;0;0
2012-11-08;228;0;0;0
2012-11-07;223;0;0;0
2012-11-06;254;0;0;0
2012-11-05;280;1;0;0
2012-11-04;320;0;0;0
2012-11-03;222;0;0;0
2012-11-02;249;0;0;0
2012-11-01;282;0;0;0
2012-10-31;304;0;0;0
2012-10-30;336;1;0;0
2012-10-29;235;1;0;0
2012-10-28;249;0;0;0
2012-10-27;279;0;0;0
2012-10-26;247;0;0;0
2012-10-25;320;1;0;0
2012-10-24;295;0;0;0
2012-10-23;280;0;0;0
2012-10-22;284;1;0;0
2012-10-21;271;0;0;0
2012-10-20;210;0;0;0
2012-10-19;187;0;0;0
2012-10-18;183;0;0;0
2012-10-17;212;0;0;0
2012-10-16;238;0;0;0
2012-10-15;225;0;0;0
2012-10-14;259;0;0;0
2012-10-13;203;0;0;0
2012-10-12;220;0;0;0
2012-10-11;241;0;0;0
2012-10-10;220;0;0;0
2012-10-09;205;0;0;0
2012-10-08;261;0;0;0
2012-10-07;261;1;0;0
2012-10-06;194;0;0;0
2012-10-05;213;1;0;0
2012-10-04;225;1;0;0
2012-10-03;195;0;0;0
2012-10-02;214;0;0;0
2012-10-01;226;0;0;0
2012-09-30;267;0;0;0
2012-09-29;215;0;0;0
2012-09-28;193;0;0;0
2012-09-27;239;0;0;0
2012-09-26;150;0;0;0
2012-09-25;166;0;0;0
2012-09-24;248;0;0;0
2012-09-23;256;0;0;0
2012-09-22;222;0;0;0
2012-09-21;212;0;0;0
2012-09-20;234;0;0;0
2012-09-19;243;0;0;0
2012-09-18;197;0;0;0
2012-09-17;219;0;0;0
2012-09-16;166;1;0;0
2012-09-15;169;0;0;0
2012-09-14;135;0;0;0
2012-09-13;173;0;0;0
2012-09-12;182;1;0;0
2012-09-11;171;0;0;0
2012-09-10;152;0;0;0
2012-09-09;186;0;0;0
2012-09-08;98;0;0;0
2012-09-07;81;0;0;0
2012-09-06;132;0;0;0
2012-09-05;121;0;0;0
2012-09-04;88;0;0;0
2012-09-03;87;0;0;0
2012-09-02;90;0;0;0
2012-09-01;75;0;0;0
2012-08-31;83;0;0;0
2012-08-30;99;0;0;0
2012-08-29;141;0;0;0
2012-08-28;139;0;0;0
2012-08-27;137;0;0;0
2012-08-26;104;0;0;0
2012-08-25;106;0;0;0
2012-08-24;99;1;0;0
2012-08-23;131;0;0;0
2012-08-22;132;0;0;0
2012-08-21;97;0;0;0
2012-08-20;136;0;0;0
2012-08-19;126;0;0;0
2012-08-18;123;0;0;0
2012-08-17;118;0;0;0
2012-08-16;125;0;0;0
2012-08-15;111;0;0;0
2012-08-14;128;0;0;0
2012-08-13;130;0;0;0
2012-08-12;154;0;0;0
2012-08-11;107;0;0;0
2012-08-10;72;0;0;0
2012-08-09;39;0;0;0
2012-08-08;46;0;0;0
2012-08-07;59;0;0;0
2012-08-06;86;0;0;0
2012-08-05;100;0;0;0
2012-08-04;98;0;0;0
2012-08-03;123;0;0;0
2012-08-02;132;0;0;0
2012-08-01;124;0;0;0
2012-07-31;150;0;0;0
2012-07-30;157;0;0;0
2012-07-29;156;0;0;0
2012-07-28;138;0;0;0
2012-07-27;155;0;0;0
2012-07-26;152;0;0;0
2012-07-25;139;0;0;0
2012-07-24;166;0;0;0
2012-07-23;184;0;0;0
2012-07-22;169;0;0;0
2012-07-21;137;0;0;0
2012-07-20;153;0;0;0
2012-07-19;169;0;0;0
2012-07-18;163;0;0;0
2012-07-17;158;0;0;0
2012-07-16;145;0;0;0
2012-07-15;124;0;0;0
2012-07-14;119;0;0;0
2012-07-13;125;0;0;0
2012-07-12;139;0;0;0
2012-07-11;155;0;0;0
2012-07-10;179;0;0;0
2012-07-09;180;0;0;0
2012-07-08;139;0;0;0
2012-07-07;137;0;0;0
2012-07-06;133;0;0;0
2012-07-05;126;0;0;0
2012-07-04;156;0;0;0
2012-07-03;174;0;0;0
2012-07-02;195;0;0;0
2012-07-01;149;0;0;0
2012-06-30;151;0;0;0
2012-06-29;144;0;0;0
2012-06-28;101;0;0;0
2012-06-27;45;0;0;0
2012-06-26;253;0;0;0
2012-06-25;889;0;0;0
2012-06-24;846;0;0;0
2012-06-23;728;0;0;0
2012-06-22;819;1;0;0
2012-06-21;815;0;0;0
2012-06-20;774;0;0;0
2012-06-19;796;0;0;0
2012-06-18;843;1;0;0
2012-06-17;776;0;0;0
2012-06-16;746;1;0;0
2012-06-15;810;0;0;0
2012-06-14;830;0;0;0
2012-06-13;851;0;0;0
2012-06-12;854;0;0;0
2012-06-11;906;1;0;0
2012-06-10;677;0;0;0
2012-06-09;658;0;0;0
2012-06-08;474;0;1;0
2012-06-07;304;0;0;0
2012-06-06;343;0;0;0
2012-06-05;359;0;0;0
2012-06-04;381;0;0;0
2012-06-03;371;0;0;0
2012-06-02;314;0;0;0
2012-06-01;321;0;0;0
2012-05-31;413;0;0;0
2012-05-30;420;0;0;0
2012-05-29;171;0;0;0
2012-05-28;61;0;0;0
2012-05-27;57;0;0;0
2012-05-26;61;0;0;0
2012-05-25;58;0;0;0
2012-05-24;57;0;0;0
2012-05-23;64;0;0;0
2012-05-22;75;0;0;0
2012-05-21;80;0;0;0
2012-05-20;58;0;0;0
2012-05-19;44;0;0;0
2012-05-18;72;0;0;0
2012-05-17;74;0;0;0
2012-05-16;79;0;0;0
2012-05-15;80;0;0;0
2012-05-14;90;0;0;0
2012-05-13;74;0;0;0
2012-05-12;59;0;0;0
2012-05-11;66;0;0;0
2012-05-10;61;0;0;0
2012-05-09;65;0;0;0
2012-05-08;92;0;0;0
2012-05-07;88;0;0;0
2012-05-06;82;0;0;0
2012-05-05;59;0;0;0
2012-05-04;59;0;0;0
2012-05-03;57;0;0;0
2012-05-02;42;0;0;0
2012-05-01;27;0;0;0
2012-04-30;32;0;0;0
2012-04-29;28;0;0;0
2012-04-28;18;0;0;0
2012-04-27;23;0;0;0
2012-04-26;33;0;0;0
2012-04-25;35;0;0;0
2012-04-24;40;0;0;0
2012-04-23;30;0;0;0
2012-04-22;44;0;0;0
2012-04-21;36;0;0;0
2012-04-20;44;0;0;0
2012-04-19;35;0;0;0
2012-04-18;30;0;0;0
2012-04-17;32;0;0;0
2012-04-16;26;0;0;0
2012-04-15;51;0;0;0
2012-04-14;42;0;0;0
2012-04-13;34;0;0;0
2012-04-12;39;0;0;0
2012-04-11;42;0;0;0
2012-04-10;31;0;0;0
2012-04-09;49;0;0;0
2012-04-08;46;0;0;0
2012-04-07;48;0;0;0
2012-04-06;38;0;0;0
2012-04-05;40;0;0;0
2012-04-04;44;0;0;0
2012-04-03;34;0;0;0
2012-04-02;48;0;0;0
2012-04-01;55;0;0;0
2012-03-31;53;0;0;0
2012-03-30;37;0;0;0
2012-03-29;37;0;0;0
2012-03-28;53;0;0;0
2012-03-27;53;0;0;0
2012-03-26;50;0;0;0
2012-03-25;54;0;0;0
2012-03-24;40;0;0;0
2012-03-23;37;0;0;0
2012-03-22;27;0;0;0
2012-03-21;27;1;0;0
2012-03-20;31;0;0;0
2012-03-19;32;0;0;0
2012-03-18;37;0;0;0
2012-03-17;41;0;0;0
2012-03-16;42;0;0;0
2012-03-15;31;0;0;0
2012-03-14;48;0;0;0
2012-03-13;97;0;0;0
2012-03-12;140;0;0;0
2012-03-11;131;0;0;0
2012-03-10;116;0;0;0
2012-03-09;108;0;0;0
2012-03-08;78;0;0;0
2012-03-07;100;0;0;0
2012-03-06;125;0;0;0
2012-03-05;137;0;0;0
2012-03-04;191;0;0;0
2012-03-03;134;0;0;0
2012-03-02;117;0;0;0
2012-03-01;100;0;0;0
2012-02-29;86;0;0;0
2012-02-28;36;0;0;0
2012-02-27;30;0;0;0
2012-02-26;26;0;0;0
2012-02-25;26;0;0;0
2012-02-24;22;0;0;0
2012-02-23;25;1;0;0
2012-02-22;35;0;0;0
2012-02-21;36;0;0;0
2012-02-20;27;0;0;0
2012-02-19;34;0;0;0
2012-02-18;22;0;0;0
2012-02-17;29;0;0;0
2012-02-16;40;0;0;0
2012-02-15;69;0;0;0
2012-02-14;73;0;0;0
2012-02-13;97;0;0;0
2012-02-12;88;0;0;0
2012-02-11;72;0;0;0
2012-02-10;72;0;0;0
2012-02-09;74;0;0;0
2012-02-08;58;0;0;0
2012-02-07;55;0;0;0
2012-02-06;50;0;0;0
2012-02-05;60;0;0;0
2012-02-04;48;0;0;0
2012-02-03;45;0;0;0
2012-02-02;56;0;0;0
2012-02-01;50;0;0;0
2012-01-31;44;0;0;0
2012-01-30;52;0;0;0
2012-01-29;66;0;0;0
2012-01-28;46;0;0;0
2012-01-27;65;0;0;0
2012-01-26;50;0;0;0
2012-01-25;65;0;0;0
2012-01-24;48;0;0;0
2012-01-23;45;0;0;0
2012-01-22;51;0;0;0
2012-01-21;50;0;0;0
2012-01-20;53;0;0;0
2012-01-19;61;1;0;0
2012-01-18;60;0;0;0
2012-01-17;51;0;0;0
2012-01-16;47;0;0;0
2012-01-15;62;0;0;0
2012-01-14;50;0;0;0
2012-01-13;61;0;0;0
2012-01-12;69;0;0;0
2012-01-11;67;0;0;0
2012-01-10;52;0;0;0
2012-01-09;50;0;0;0
2012-01-08;55;0;0;0
2012-01-07;36;1;0;0
2012-01-06;47;0;0;0
2012-01-05;39;0;0;0
2012-01-04;71;0;0;0
2012-01-03;49;0;0;0
2012-01-02;42;0;0;0
2012-01-01;38;0;0;0
2011-12-31;26;0;0;0
2011-12-30;36;0;0;0
2011-12-29;33;0;0;0
2011-12-28;36;1;0;0
2011-12-27;46;0;0;0
2011-12-26;37;0;0;0
2011-12-25;52;0;0;0
2011-12-24;30;0;0;0
2011-12-23;44;0;0;0
2011-12-22;53;0;0;0
2011-12-21;55;0;0;0
2011-12-20;51;0;0;0
2011-12-19;54;0;0;0
2011-12-18;51;0;0;0
2011-12-17;43;0;0;0
2011-12-16;38;0;0;0
2011-12-15;56;0;0;0
2011-12-14;45;0;0;0
2011-12-13;65;0;0;0
2011-12-12;46;0;0;0
2011-12-11;33;0;0;0
2011-12-10;30;0;0;0
2011-12-09;26;0;0;0
2011-12-08;44;1;0;0
2011-12-07;30;0;0;0
2011-12-06;27;0;0;0
2011-12-05;62;0;0;0
2011-12-04;66;0;0;0
2011-12-03;57;0;0;0
2011-12-02;49;0;0;0
2011-12-01;30;0;0;0
2011-11-30;19;0;0;0
2011-11-29;8;0;0;0
2011-11-28;29;0;0;0
2011-11-27;59;0;0;0
2011-11-26;30;0;0;0
2011-11-25;40;0;0;0
2011-11-24;49;0;0;0
2011-11-23;48;0;0;0
2011-11-22;48;0;0;0
2011-11-21;38;0;0;0
2011-11-20;38;0;0;0
2011-11-19;46;0;0;0
2011-11-18;46;0;0;0
2011-11-17;37;0;0;0
2011-11-16;44;1;0;0
2011-11-15;44;0;0;0
2011-11-14;53;0;0;0
2011-11-13;48;0;0;0
2011-11-12;47;0;0;0
2011-11-11;27;0;0;0
2011-11-10;21;0;0;0
2011-11-09;60;0;0;0
2011-11-08;45;1;0;0
2011-11-07;52;0;0;0
2011-11-06;49;0;0;0
2011-11-05;42;0;0;0
2011-11-04;39;0;0;0
2011-11-03;54;0;0;0
2011-11-02;47;0;0;0
2011-11-01;44;0;0;0
2011-10-31;50;0;0;0
2011-10-30;86;0;0;0
2011-10-29;64;0;0;0
2011-10-28;53;0;0;0
2011-10-27;57;0;0;0
2011-10-26;60;0;0;0
2011-10-25;62;0;0;0
2011-10-24;30;0;0;0
2011-10-23;32;0;0;0
2011-10-22;29;0;0;0